Year,Month,Day,Hour,Minute,Value (Times are PST for temperature in C)
2018,09,07,00,00,18.20
2018,09,07,00,01,18.20
2018,09,07,00,02,18.20
2018,09,07,00,03,18.20
2018,09,07,00,04,18.20
2018,09,07,00,05,18.20
2018,09,07,00,06,18.20
2018,09,07,00,07,18.20
2018,09,07,00,08,18.20
2018,09,07,00,09,18.20
2018,09,07,00,10,18.20
2018,09,07,00,11,18.20
2018,09,07,00,12,18.20
2018,09,07,00,13,18.30
2018,09,07,00,14,18.30
2018,09,07,00,15,18.30
2018,09,07,00,16,18.30
2018,09,07,00,17,18.30
2018,09,07,00,18,18.30
2018,09,07,00,19,18.30
2018,09,07,00,20,18.30
2018,09,07,00,21,18.30
2018,09,07,00,22,18.30
2018,09,07,00,23,18.30
2018,09,07,00,24,18.30
2018,09,07,00,25,18.30
2018,09,07,00,26,18.30
2018,09,07,00,27,18.30
2018,09,07,00,28,18.20
2018,09,07,00,29,18.20
2018,09,07,00,30,18.20
2018,09,07,00,31,18.20
2018,09,07,00,32,18.20
2018,09,07,00,33,18.20
2018,09,07,00,34,18.20
2018,09,07,00,35,18.20
2018,09,07,00,36,18.20
2018,09,07,00,37,18.20
2018,09,07,00,38,18.20
2018,09,07,00,39,18.20
2018,09,07,00,40,18.20
2018,09,07,00,41,18.30
2018,09,07,00,42,18.30
2018,09,07,00,43,18.30
2018,09,07,00,44,18.30
2018,09,07,00,45,18.30
2018,09,07,00,46,18.30
2018,09,07,00,47,18.40
2018,09,07,00,48,18.40
2018,09,07,00,49,18.50
2018,09,07,00,50,18.50
2018,09,07,00,51,18.60
2018,09,07,00,52,18.60
2018,09,07,00,53,18.60
2018,09,07,00,54,18.60
2018,09,07,00,55,18.50
2018,09,07,00,56,18.50
2018,09,07,00,57,18.40
2018,09,07,00,58,18.40
2018,09,07,00,59,18.30
2018,09,07,01,00,18.20
2018,09,07,01,01,18.20
2018,09,07,01,02,18.10
2018,09,07,01,03,18.10
2018,09,07,01,04,18.00
2018,09,07,01,05,18.00
2018,09,07,01,06,17.90
2018,09,07,01,07,17.90
2018,09,07,01,08,17.90
2018,09,07,01,09,17.90
2018,09,07,01,10,17.90
2018,09,07,01,11,17.90
2018,09,07,01,12,18.00
2018,09,07,01,13,18.00
2018,09,07,01,14,18.00
2018,09,07,01,15,18.10
2018,09,07,01,16,18.10
2018,09,07,01,17,18.10
2018,09,07,01,18,18.20
2018,09,07,01,19,18.20
2018,09,07,01,20,18.20
2018,09,07,01,21,18.20
2018,09,07,01,22,18.20
2018,09,07,01,23,18.20
2018,09,07,01,24,18.20
2018,09,07,01,25,18.20
2018,09,07,01,26,18.20
2018,09,07,01,27,18.20
2018,09,07,01,28,18.20
2018,09,07,01,29,18.20
2018,09,07,01,30,18.20
2018,09,07,01,31,18.20
2018,09,07,01,32,18.20
2018,09,07,01,33,18.20
2018,09,07,01,34,18.20
2018,09,07,01,35,18.10
2018,09,07,01,36,18.10
2018,09,07,01,37,18.00
2018,09,07,01,38,18.00
2018,09,07,01,39,17.90
2018,09,07,01,40,17.90
2018,09,07,01,41,17.80
2018,09,07,01,42,17.80
2018,09,07,01,43,17.80
2018,09,07,01,44,17.80
2018,09,07,01,45,17.70
2018,09,07,01,46,17.70
2018,09,07,01,47,17.70
2018,09,07,01,48,17.70
2018,09,07,01,49,17.60
2018,09,07,01,50,17.60
2018,09,07,01,51,17.60
2018,09,07,01,52,17.50
2018,09,07,01,53,17.50
2018,09,07,01,54,17.50
2018,09,07,01,55,17.40
2018,09,07,01,56,17.40
2018,09,07,01,57,17.40
2018,09,07,01,58,17.40
2018,09,07,01,59,17.40
2018,09,07,02,00,17.30
2018,09,07,02,01,17.30
2018,09,07,02,02,17.30
2018,09,07,02,03,17.20
2018,09,07,02,04,17.20
2018,09,07,02,05,17.20
2018,09,07,02,06,17.10
2018,09,07,02,07,17.10
2018,09,07,02,08,17.10
2018,09,07,02,09,17.10
2018,09,07,02,10,17.00
2018,09,07,02,11,17.00
2018,09,07,02,12,17.00
2018,09,07,02,13,17.10
2018,09,07,02,14,17.10
2018,09,07,02,15,17.10
2018,09,07,02,16,17.10
2018,09,07,02,17,17.20
2018,09,07,02,18,17.20
2018,09,07,02,19,17.30
2018,09,07,02,20,17.30
2018,09,07,02,21,17.30
2018,09,07,02,22,17.30
2018,09,07,02,23,17.30
2018,09,07,02,24,17.30
2018,09,07,02,25,17.30
2018,09,07,02,26,17.30
2018,09,07,02,27,17.30
2018,09,07,02,28,17.30
2018,09,07,02,29,17.30
2018,09,07,02,30,17.30
2018,09,07,02,31,17.30
2018,09,07,02,32,17.30
2018,09,07,02,33,17.30
2018,09,07,02,34,17.30
2018,09,07,02,35,17.30
2018,09,07,02,36,17.30
2018,09,07,02,37,17.30
2018,09,07,02,38,17.30
2018,09,07,02,39,17.30
2018,09,07,02,40,17.30
2018,09,07,02,41,17.30
2018,09,07,02,42,17.40
2018,09,07,02,43,17.50
2018,09,07,02,44,17.50
2018,09,07,02,45,17.50
2018,09,07,02,46,17.60
2018,09,07,02,47,17.60
2018,09,07,02,48,17.60
2018,09,07,02,49,17.60
2018,09,07,02,50,17.60
2018,09,07,02,51,17.60
2018,09,07,02,52,17.60
2018,09,07,02,53,17.60
2018,09,07,02,54,17.60
2018,09,07,02,55,17.60
2018,09,07,02,56,17.60
2018,09,07,02,57,17.60
2018,09,07,02,58,17.60
2018,09,07,02,59,17.60
2018,09,07,03,00,17.60
2018,09,07,03,01,17.60
2018,09,07,03,02,17.60
2018,09,07,03,03,17.60
2018,09,07,03,04,17.60
2018,09,07,03,05,17.70
2018,09,07,03,06,17.70
2018,09,07,03,07,17.70
2018,09,07,03,08,17.70
2018,09,07,03,09,17.70
2018,09,07,03,10,17.70
2018,09,07,03,11,17.70
2018,09,07,03,12,17.70
2018,09,07,03,13,17.70
2018,09,07,03,14,17.70
2018,09,07,03,15,17.70
2018,09,07,03,16,17.70
2018,09,07,03,17,17.70
2018,09,07,03,18,17.70
2018,09,07,03,19,17.70
2018,09,07,03,20,17.80
2018,09,07,03,21,17.80
2018,09,07,03,22,17.80
2018,09,07,03,23,17.80
2018,09,07,03,24,17.80
2018,09,07,03,25,17.80
2018,09,07,03,26,17.80
2018,09,07,03,27,17.80
2018,09,07,03,28,17.80
2018,09,07,03,29,17.90
2018,09,07,03,30,17.90
2018,09,07,03,31,17.90
2018,09,07,03,32,17.90
2018,09,07,03,33,17.90
2018,09,07,03,34,18.00
2018,09,07,03,35,18.00
2018,09,07,03,36,18.00
2018,09,07,03,37,18.00
2018,09,07,03,38,18.00
2018,09,07,03,39,18.00
2018,09,07,03,40,18.00
2018,09,07,03,41,18.00
2018,09,07,03,42,18.00
2018,09,07,03,43,18.00
2018,09,07,03,44,18.00
2018,09,07,03,45,18.00
2018,09,07,03,46,18.00
2018,09,07,03,47,17.90
2018,09,07,03,48,17.90
2018,09,07,03,49,17.90
2018,09,07,03,50,17.90
2018,09,07,03,51,17.90
2018,09,07,03,52,17.90
2018,09,07,03,53,17.90
2018,09,07,03,54,17.90
2018,09,07,03,55,17.90
2018,09,07,03,56,17.90
2018,09,07,03,57,17.90
2018,09,07,03,58,17.90
2018,09,07,03,59,17.90
2018,09,07,04,00,17.80
2018,09,07,04,01,17.80
2018,09,07,04,02,17.80
2018,09,07,04,03,17.80
2018,09,07,04,04,17.70
2018,09,07,04,05,17.70
2018,09,07,04,06,17.70
2018,09,07,04,07,17.60
2018,09,07,04,08,17.60
2018,09,07,04,09,17.50
2018,09,07,04,10,17.50
2018,09,07,04,11,17.50
2018,09,07,04,12,17.40
2018,09,07,04,13,17.40
2018,09,07,04,14,17.30
2018,09,07,04,15,17.30
2018,09,07,04,16,17.30
2018,09,07,04,17,17.20
2018,09,07,04,18,17.20
2018,09,07,04,19,17.20
2018,09,07,04,20,17.10
2018,09,07,04,21,17.10
2018,09,07,04,22,17.10
2018,09,07,04,23,17.00
2018,09,07,04,24,16.90
2018,09,07,04,25,16.90
2018,09,07,04,26,16.90
2018,09,07,04,27,16.80
2018,09,07,04,28,16.80
2018,09,07,04,29,16.80
2018,09,07,04,30,16.70
2018,09,07,04,31,16.70
2018,09,07,04,32,16.70
2018,09,07,04,33,16.70
2018,09,07,04,34,16.60
2018,09,07,04,35,16.60
2018,09,07,04,36,16.60
2018,09,07,04,37,16.50
2018,09,07,04,38,16.50
2018,09,07,04,39,16.40
2018,09,07,04,40,16.40
2018,09,07,04,41,16.40
2018,09,07,04,42,16.30
2018,09,07,04,43,16.30
2018,09,07,04,44,16.30
2018,09,07,04,45,16.30
2018,09,07,04,46,16.30
2018,09,07,04,47,16.30
2018,09,07,04,48,16.30
2018,09,07,04,49,16.20
2018,09,07,04,50,16.20
2018,09,07,04,51,16.20
2018,09,07,04,52,16.20
2018,09,07,04,53,16.20
2018,09,07,04,54,16.10
2018,09,07,04,55,16.10
2018,09,07,04,56,16.10
2018,09,07,04,57,16.10
2018,09,07,04,58,16.10
2018,09,07,04,59,16.10
2018,09,07,05,00,16.00
2018,09,07,05,01,16.00
2018,09,07,05,02,16.00
2018,09,07,05,03,15.90
2018,09,07,05,04,15.90
2018,09,07,05,05,15.90
2018,09,07,05,06,15.90
2018,09,07,05,07,15.80
2018,09,07,05,08,15.80
2018,09,07,05,09,15.80
2018,09,07,05,10,15.80
2018,09,07,05,11,15.80
2018,09,07,05,12,15.80
2018,09,07,05,13,15.80
2018,09,07,05,14,15.80
2018,09,07,05,15,15.80
2018,09,07,05,16,15.70
2018,09,07,05,17,15.70
2018,09,07,05,18,15.70
2018,09,07,05,19,15.70
2018,09,07,05,20,15.70
2018,09,07,05,21,15.70
2018,09,07,05,22,15.70
2018,09,07,05,23,15.70
2018,09,07,05,24,15.70
2018,09,07,05,25,15.70
2018,09,07,05,26,15.70
2018,09,07,05,27,15.70
2018,09,07,05,28,15.70
2018,09,07,05,29,15.70
2018,09,07,05,30,15.70
2018,09,07,05,31,15.70
2018,09,07,05,32,15.60
2018,09,07,05,33,15.60
2018,09,07,05,34,15.60
2018,09,07,05,35,15.60
2018,09,07,05,36,15.60
2018,09,07,05,37,15.60
2018,09,07,05,38,15.60
2018,09,07,05,39,15.60
2018,09,07,05,40,15.50
2018,09,07,05,41,15.50
2018,09,07,05,42,15.50
2018,09,07,05,43,15.40
2018,09,07,05,44,15.40
2018,09,07,05,45,15.40
2018,09,07,05,46,15.30
2018,09,07,05,47,15.30
2018,09,07,05,48,15.20
2018,09,07,05,49,15.10
2018,09,07,05,50,14.90
2018,09,07,05,51,14.90
2018,09,07,05,52,14.80
2018,09,07,05,53,14.70
2018,09,07,05,54,14.60
2018,09,07,05,55,14.60
2018,09,07,05,56,14.50
2018,09,07,05,57,14.50
2018,09,07,05,58,14.40
2018,09,07,05,59,14.40
2018,09,07,06,00,14.40
2018,09,07,06,01,14.30
2018,09,07,06,02,14.30
2018,09,07,06,03,14.30
2018,09,07,06,04,14.20
2018,09,07,06,05,14.20
2018,09,07,06,06,14.20
2018,09,07,06,07,14.10
2018,09,07,06,08,14.10
2018,09,07,06,09,14.10
2018,09,07,06,10,14.00
2018,09,07,06,11,14.00
2018,09,07,06,12,14.00
2018,09,07,06,13,14.00
2018,09,07,06,14,13.90
2018,09,07,06,15,13.90
2018,09,07,06,16,13.90
2018,09,07,06,17,13.90
2018,09,07,06,18,13.90
2018,09,07,06,19,13.90
2018,09,07,06,20,13.80
2018,09,07,06,21,13.80
2018,09,07,06,22,13.80
2018,09,07,06,23,13.80
2018,09,07,06,24,13.80
2018,09,07,06,25,13.70
2018,09,07,06,26,13.70
2018,09,07,06,27,13.70
2018,09,07,06,28,13.70
2018,09,07,06,29,13.70
2018,09,07,06,30,13.70
2018,09,07,06,31,13.70
2018,09,07,06,32,13.70
2018,09,07,06,33,13.70
2018,09,07,06,34,13.70
2018,09,07,06,35,13.70
2018,09,07,06,36,13.70
2018,09,07,06,37,13.70
2018,09,07,06,38,13.60
2018,09,07,06,39,13.70
2018,09,07,06,40,13.60
2018,09,07,06,41,13.60
2018,09,07,06,42,13.60
2018,09,07,06,43,13.60
2018,09,07,06,44,13.60
2018,09,07,06,45,13.60
2018,09,07,06,46,13.60
2018,09,07,06,47,13.60
2018,09,07,06,48,13.60
2018,09,07,06,49,13.60
2018,09,07,06,50,13.60
2018,09,07,06,51,13.60
2018,09,07,06,52,13.60
2018,09,07,06,53,13.60
2018,09,07,06,54,13.60
2018,09,07,06,55,13.70
2018,09,07,06,56,13.70
2018,09,07,06,57,13.70
2018,09,07,06,58,13.70
2018,09,07,06,59,13.70
2018,09,07,07,00,13.70
2018,09,07,07,01,13.70
2018,09,07,07,02,13.70
2018,09,07,07,03,13.70
2018,09,07,07,04,13.60
2018,09,07,07,05,13.60
2018,09,07,07,06,13.60
2018,09,07,07,07,13.60
2018,09,07,07,08,13.60
2018,09,07,07,09,13.60
2018,09,07,07,10,13.60
2018,09,07,07,11,13.50
2018,09,07,07,12,13.50
2018,09,07,07,13,13.50
2018,09,07,07,14,13.50
2018,09,07,07,15,13.50
2018,09,07,07,16,13.50
2018,09,07,07,17,13.50
2018,09,07,07,18,13.50
2018,09,07,07,19,13.50
2018,09,07,07,20,13.40
2018,09,07,07,21,13.40
2018,09,07,07,22,13.40
2018,09,07,07,23,13.40
2018,09,07,07,24,13.40
2018,09,07,07,25,13.40
2018,09,07,07,26,13.40
2018,09,07,07,27,13.40
2018,09,07,07,28,13.40
2018,09,07,07,29,13.40
2018,09,07,07,30,13.40
2018,09,07,07,31,13.40
2018,09,07,07,32,13.40
2018,09,07,07,33,13.40
2018,09,07,07,34,13.40
2018,09,07,07,35,13.40
2018,09,07,07,36,13.40
2018,09,07,07,37,13.40
2018,09,07,07,38,13.40
2018,09,07,07,39,13.40
2018,09,07,07,40,13.50
2018,09,07,07,41,13.50
2018,09,07,07,42,13.50
2018,09,07,07,43,13.60
2018,09,07,07,44,13.60
2018,09,07,07,45,13.70
2018,09,07,07,46,13.70
2018,09,07,07,47,13.80
2018,09,07,07,48,13.80
2018,09,07,07,49,13.90
2018,09,07,07,50,13.90
2018,09,07,07,51,14.00
2018,09,07,07,52,14.00
2018,09,07,07,53,14.10
2018,09,07,07,54,14.10
2018,09,07,07,55,14.10
2018,09,07,07,56,14.10
2018,09,07,07,57,14.20
2018,09,07,07,58,14.20
2018,09,07,07,59,14.20
2018,09,07,08,00,14.20
2018,09,07,08,01,14.20
2018,09,07,08,02,14.30
2018,09,07,08,03,14.30
2018,09,07,08,04,14.30
2018,09,07,08,05,14.30
2018,09,07,08,06,14.30
2018,09,07,08,07,14.30
2018,09,07,08,08,14.30
2018,09,07,08,09,14.30
2018,09,07,08,10,14.30
2018,09,07,08,11,14.40
2018,09,07,08,12,14.30
2018,09,07,08,13,14.40
2018,09,07,08,14,14.40
2018,09,07,08,15,14.40
2018,09,07,08,16,14.40
2018,09,07,08,17,14.40
2018,09,07,08,18,14.40
2018,09,07,08,19,14.50
2018,09,07,08,20,14.50
2018,09,07,08,21,14.50
2018,09,07,08,22,14.50
2018,09,07,08,23,14.50
2018,09,07,08,24,14.50
2018,09,07,08,25,14.60
2018,09,07,08,26,14.60
2018,09,07,08,27,14.60
2018,09,07,08,28,14.60
2018,09,07,08,29,14.60
2018,09,07,08,30,14.60
2018,09,07,08,31,14.60
2018,09,07,08,32,14.60
2018,09,07,08,33,14.60
2018,09,07,08,34,14.60
2018,09,07,08,35,14.70
2018,09,07,08,36,14.70
2018,09,07,08,37,14.70
2018,09,07,08,38,14.70
2018,09,07,08,39,14.70
2018,09,07,08,40,14.70
2018,09,07,08,41,14.70
2018,09,07,08,42,14.70
2018,09,07,08,43,14.80
2018,09,07,08,44,14.80
2018,09,07,08,45,14.80
2018,09,07,08,46,14.80
2018,09,07,08,47,14.80
2018,09,07,08,48,14.80
2018,09,07,08,49,14.80
2018,09,07,08,50,14.80
2018,09,07,08,51,14.80
2018,09,07,08,52,14.80
2018,09,07,08,53,14.80
2018,09,07,08,54,14.80
2018,09,07,08,55,14.80
2018,09,07,08,56,14.90
2018,09,07,08,57,14.90
2018,09,07,08,58,14.90
2018,09,07,08,59,14.90
2018,09,07,09,00,14.90
2018,09,07,09,01,14.90
2018,09,07,09,02,14.90
2018,09,07,09,03,14.90
2018,09,07,09,04,14.80
2018,09,07,09,05,14.90
2018,09,07,09,06,14.80
2018,09,07,09,07,14.90
2018,09,07,09,08,14.80
2018,09,07,09,09,14.80
2018,09,07,09,10,14.80
2018,09,07,09,11,14.80
2018,09,07,09,12,14.80
2018,09,07,09,13,14.80
2018,09,07,09,14,14.70
2018,09,07,09,15,14.70
2018,09,07,09,16,14.70
2018,09,07,09,17,14.70
2018,09,07,09,18,14.70
2018,09,07,09,19,14.70
2018,09,07,09,20,14.70
2018,09,07,09,21,14.70
2018,09,07,09,22,14.70
2018,09,07,09,23,14.70
2018,09,07,09,24,14.70
2018,09,07,09,25,14.70
2018,09,07,09,26,14.70
2018,09,07,09,27,14.70
2018,09,07,09,28,14.70
2018,09,07,09,29,14.70
2018,09,07,09,30,14.70
2018,09,07,09,31,14.70
2018,09,07,09,32,14.70
2018,09,07,09,33,14.70
2018,09,07,09,34,14.70
2018,09,07,09,35,14.70
2018,09,07,09,36,14.70
2018,09,07,09,37,14.80
2018,09,07,09,38,14.80
2018,09,07,09,39,14.80
2018,09,07,09,40,14.80
2018,09,07,09,41,14.90
2018,09,07,09,42,14.90
2018,09,07,09,43,15.00
2018,09,07,09,44,15.00
2018,09,07,09,45,15.00
2018,09,07,09,46,15.00
2018,09,07,09,47,15.00
2018,09,07,09,48,14.90
2018,09,07,09,49,14.90
2018,09,07,09,50,14.90
2018,09,07,09,51,14.90
2018,09,07,09,52,14.90
2018,09,07,09,53,14.90
2018,09,07,09,54,14.90
2018,09,07,09,55,15.00
2018,09,07,09,56,15.10
2018,09,07,09,57,15.10
2018,09,07,09,58,15.10
2018,09,07,09,59,15.20
2018,09,07,10,00,15.20
2018,09,07,10,01,15.20
2018,09,07,10,02,15.20
2018,09,07,10,03,15.20
2018,09,07,10,04,15.20
2018,09,07,10,05,15.20
2018,09,07,10,06,15.20
2018,09,07,10,07,15.20
2018,09,07,10,08,15.20
2018,09,07,10,09,15.20
2018,09,07,10,10,15.20
2018,09,07,10,11,15.30
2018,09,07,10,12,15.30
2018,09,07,10,13,15.30
2018,09,07,10,14,15.30
2018,09,07,10,15,15.30
2018,09,07,10,16,15.30
2018,09,07,10,17,15.30
2018,09,07,10,18,15.40
2018,09,07,10,19,15.40
2018,09,07,10,20,15.40
2018,09,07,10,21,15.50
2018,09,07,10,22,15.50
2018,09,07,10,23,15.60
2018,09,07,10,24,15.60
2018,09,07,10,25,15.70
2018,09,07,10,26,15.70
2018,09,07,10,27,15.70
2018,09,07,10,28,15.80
2018,09,07,10,29,15.80
2018,09,07,10,30,15.80
2018,09,07,10,31,15.90
2018,09,07,10,32,15.90
2018,09,07,10,33,15.90
2018,09,07,10,34,15.90
2018,09,07,10,35,15.90
2018,09,07,10,36,15.90
2018,09,07,10,37,15.90
2018,09,07,10,38,15.90
2018,09,07,10,39,15.90
2018,09,07,10,40,16.00
2018,09,07,10,41,16.00
2018,09,07,10,42,16.10
2018,09,07,10,43,16.10
2018,09,07,10,44,16.20
2018,09,07,10,45,16.30
2018,09,07,10,46,16.40
2018,09,07,10,47,16.50
2018,09,07,10,48,16.60
2018,09,07,10,49,16.60
2018,09,07,10,50,16.70
2018,09,07,10,51,16.70
2018,09,07,10,52,16.70
2018,09,07,10,53,16.80
2018,09,07,10,54,16.80
2018,09,07,10,55,16.80
2018,09,07,10,56,16.70
2018,09,07,10,57,16.70
2018,09,07,10,58,16.70
2018,09,07,10,59,16.80
2018,09,07,11,00,16.80
2018,09,07,11,01,16.80
2018,09,07,11,02,16.90
2018,09,07,11,03,16.90
2018,09,07,11,04,16.90
2018,09,07,11,05,17.00
2018,09,07,11,06,17.10
2018,09,07,11,07,17.10
2018,09,07,11,08,17.10
2018,09,07,11,09,17.10
2018,09,07,11,10,17.10
2018,09,07,11,11,17.10
2018,09,07,11,12,17.10
2018,09,07,11,13,17.10
2018,09,07,11,14,17.10
2018,09,07,11,15,17.10
2018,09,07,11,16,17.10
2018,09,07,11,17,17.20
2018,09,07,11,18,17.20
2018,09,07,11,19,17.20
2018,09,07,11,20,17.20
2018,09,07,11,21,17.30
2018,09,07,11,22,17.30
2018,09,07,11,23,17.40
2018,09,07,11,24,17.50
2018,09,07,11,25,17.50
2018,09,07,11,26,17.60
2018,09,07,11,27,17.60
2018,09,07,11,28,17.60
2018,09,07,11,29,17.70
2018,09,07,11,30,17.70
2018,09,07,11,31,17.70
2018,09,07,11,32,17.70
2018,09,07,11,33,17.70
2018,09,07,11,34,17.70
2018,09,07,11,35,17.70
2018,09,07,11,36,17.70
2018,09,07,11,37,17.70
2018,09,07,11,38,17.70
2018,09,07,11,39,17.80
2018,09,07,11,40,17.80
2018,09,07,11,41,17.80
2018,09,07,11,42,17.90
2018,09,07,11,43,17.90
2018,09,07,11,44,18.00
2018,09,07,11,45,18.10
2018,09,07,11,46,18.10
2018,09,07,11,47,18.10
2018,09,07,11,48,18.10
2018,09,07,11,49,18.10
2018,09,07,11,50,18.00
2018,09,07,11,51,18.00
2018,09,07,11,52,18.00
2018,09,07,11,53,18.10
2018,09,07,11,54,18.10
2018,09,07,11,55,18.10
2018,09,07,11,56,18.20
2018,09,07,11,57,18.20
2018,09,07,11,58,18.20
2018,09,07,11,59,18.20
2018,09,07,12,00,18.20
2018,09,07,12,01,18.20
2018,09,07,12,02,18.10
2018,09,07,12,03,18.10
2018,09,07,12,04,18.00
2018,09,07,12,05,17.80
2018,09,07,12,06,17.70
2018,09,07,12,07,17.60
2018,09,07,12,08,17.50
2018,09,07,12,09,17.50
2018,09,07,12,10,17.40
2018,09,07,12,11,17.40
2018,09,07,12,12,17.40
2018,09,07,12,13,17.30
2018,09,07,12,14,17.30
2018,09,07,12,15,17.30
2018,09,07,12,16,17.20
2018,09,07,12,17,17.20
2018,09,07,12,18,17.20
2018,09,07,12,19,17.20
2018,09,07,12,20,17.20
2018,09,07,12,21,17.10
2018,09,07,12,22,17.10
2018,09,07,12,23,17.10
2018,09,07,12,24,17.10
2018,09,07,12,25,17.00
2018,09,07,12,26,17.00
2018,09,07,12,27,17.00
2018,09,07,12,28,17.00
2018,09,07,12,29,17.00
2018,09,07,12,30,17.10
2018,09,07,12,31,17.10
2018,09,07,12,32,17.10
2018,09,07,12,33,17.10
2018,09,07,12,34,17.10
2018,09,07,12,35,17.10
2018,09,07,12,36,17.20
2018,09,07,12,37,17.20
2018,09,07,12,38,17.20
2018,09,07,12,39,17.20
2018,09,07,12,40,17.30
2018,09,07,12,41,17.30
2018,09,07,12,42,17.30
2018,09,07,12,43,17.30
2018,09,07,12,44,17.30
2018,09,07,12,45,17.30
2018,09,07,12,46,17.40
2018,09,07,12,47,17.40
2018,09,07,12,48,17.50
2018,09,07,12,49,17.50
2018,09,07,12,50,17.60
2018,09,07,12,51,17.60
2018,09,07,12,52,17.70
2018,09,07,12,53,17.80
2018,09,07,12,54,17.90
2018,09,07,12,55,17.90
2018,09,07,12,56,18.00
2018,09,07,12,57,18.10
2018,09,07,12,58,18.20
2018,09,07,12,59,18.30
2018,09,07,13,00,18.30
2018,09,07,13,01,18.40
2018,09,07,13,02,18.50
2018,09,07,13,03,18.60
2018,09,07,13,04,18.60
2018,09,07,13,05,18.60
2018,09,07,13,06,18.60
2018,09,07,13,07,18.60
2018,09,07,13,08,18.60
2018,09,07,13,09,18.50
2018,09,07,13,10,18.50
2018,09,07,13,11,18.50
2018,09,07,13,12,18.50
2018,09,07,13,13,18.50
2018,09,07,13,14,18.50
2018,09,07,13,15,18.40
2018,09,07,13,16,18.40
2018,09,07,13,17,18.40
2018,09,07,13,18,18.40
2018,09,07,13,19,18.40
2018,09,07,13,20,18.50
2018,09,07,13,21,18.50
2018,09,07,13,22,18.50
2018,09,07,13,23,18.60
2018,09,07,13,24,18.70
2018,09,07,13,25,18.70
2018,09,07,13,26,18.70
2018,09,07,13,27,18.70
2018,09,07,13,28,18.70
2018,09,07,13,29,18.70
2018,09,07,13,30,18.70
2018,09,07,13,31,18.60
2018,09,07,13,32,18.60
2018,09,07,13,33,18.60
2018,09,07,13,34,18.60
2018,09,07,13,35,18.70
2018,09,07,13,36,18.70
2018,09,07,13,37,18.80
2018,09,07,13,38,18.80
2018,09,07,13,39,18.90
2018,09,07,13,40,18.90
2018,09,07,13,41,19.00
2018,09,07,13,42,19.00
2018,09,07,13,43,19.10
2018,09,07,13,44,19.20
2018,09,07,13,45,19.20
2018,09,07,13,46,19.30
2018,09,07,13,47,19.40
2018,09,07,13,48,19.40
2018,09,07,13,49,19.40
2018,09,07,13,50,19.40
2018,09,07,13,51,19.40
2018,09,07,13,52,19.40
2018,09,07,13,53,19.40
2018,09,07,13,54,19.40
2018,09,07,13,55,19.40
2018,09,07,13,56,19.30
2018,09,07,13,57,19.20
2018,09,07,13,58,19.10
2018,09,07,13,59,19.10
2018,09,07,14,00,19.00
2018,09,07,14,01,19.00
2018,09,07,14,02,18.90
2018,09,07,14,03,18.80
2018,09,07,14,04,18.80
2018,09,07,14,05,18.70
2018,09,07,14,06,18.70
2018,09,07,14,07,18.70
2018,09,07,14,08,18.70
2018,09,07,14,09,18.70
2018,09,07,14,10,18.80
2018,09,07,14,11,18.80
2018,09,07,14,12,18.80
2018,09,07,14,13,18.80
2018,09,07,14,14,18.90
2018,09,07,14,15,18.90
2018,09,07,14,16,18.90
2018,09,07,14,17,18.90
2018,09,07,14,18,18.90
2018,09,07,14,19,18.90
2018,09,07,14,20,18.90
2018,09,07,14,21,18.90
2018,09,07,14,22,18.90
2018,09,07,14,23,18.90
2018,09,07,14,24,18.90
2018,09,07,14,25,18.90
2018,09,07,14,26,19.00
2018,09,07,14,27,19.00
2018,09,07,14,28,19.10
2018,09,07,14,29,19.20
2018,09,07,14,30,19.30
2018,09,07,14,31,19.40
2018,09,07,14,32,19.50
2018,09,07,14,33,19.60
2018,09,07,14,34,19.60
2018,09,07,14,35,19.70
2018,09,07,14,36,19.70
2018,09,07,14,37,19.70
2018,09,07,14,38,19.70
2018,09,07,14,39,19.70
2018,09,07,14,40,19.60
2018,09,07,14,41,19.60
2018,09,07,14,42,19.50
2018,09,07,14,43,19.50
2018,09,07,14,44,19.40
2018,09,07,14,45,19.40
2018,09,07,14,46,19.40
2018,09,07,14,47,19.30
2018,09,07,14,48,19.30
2018,09,07,14,49,19.30
2018,09,07,14,50,19.20
2018,09,07,14,51,19.20
2018,09,07,14,52,19.10
2018,09,07,14,53,19.10
2018,09,07,14,54,19.10
2018,09,07,14,55,19.10
2018,09,07,14,56,19.10
2018,09,07,14,57,19.10
2018,09,07,14,58,19.10
2018,09,07,14,59,19.10
2018,09,07,15,00,19.00
2018,09,07,15,01,19.00
2018,09,07,15,02,19.00
2018,09,07,15,03,19.10
2018,09,07,15,04,19.10
2018,09,07,15,05,19.10
2018,09,07,15,06,19.10
2018,09,07,15,07,19.10
2018,09,07,15,08,19.00
2018,09,07,15,09,19.00
2018,09,07,15,10,18.90
2018,09,07,15,11,18.90
2018,09,07,15,12,18.80
2018,09,07,15,13,18.80
2018,09,07,15,14,18.80
2018,09,07,15,15,18.80
2018,09,07,15,16,18.80
2018,09,07,15,17,18.80
2018,09,07,15,18,18.80
2018,09,07,15,19,18.70
2018,09,07,15,20,18.80
2018,09,07,15,21,18.80
2018,09,07,15,22,18.80
2018,09,07,15,23,18.80
2018,09,07,15,24,18.80
2018,09,07,15,25,18.80
2018,09,07,15,26,18.80
2018,09,07,15,27,18.70
2018,09,07,15,28,18.70
2018,09,07,15,29,18.50
2018,09,07,15,30,18.40
2018,09,07,15,31,18.30
2018,09,07,15,32,18.20
2018,09,07,15,33,18.00
2018,09,07,15,34,17.80
2018,09,07,15,35,17.60
2018,09,07,15,36,17.50
2018,09,07,15,37,17.30
2018,09,07,15,38,17.20
2018,09,07,15,39,17.00
2018,09,07,15,40,16.90
2018,09,07,15,41,16.80
2018,09,07,15,42,16.70
2018,09,07,15,43,16.70
2018,09,07,15,44,16.70
2018,09,07,15,45,16.70
2018,09,07,15,46,16.60
2018,09,07,15,47,16.60
2018,09,07,15,48,16.60
2018,09,07,15,49,16.50
2018,09,07,15,50,16.40
2018,09,07,15,51,16.40
2018,09,07,15,52,16.40
2018,09,07,15,53,16.30
2018,09,07,15,54,16.30
2018,09,07,15,55,16.30
2018,09,07,15,56,16.20
2018,09,07,15,57,16.20
2018,09,07,15,58,16.20
2018,09,07,15,59,16.20
2018,09,07,16,00,16.20
2018,09,07,16,01,16.20
2018,09,07,16,02,16.20
2018,09,07,16,03,16.20
2018,09,07,16,04,16.10
2018,09,07,16,05,16.20
2018,09,07,16,06,16.20
2018,09,07,16,07,16.20
2018,09,07,16,08,16.20
2018,09,07,16,09,16.20
2018,09,07,16,10,16.20
2018,09,07,16,11,16.20
2018,09,07,16,12,16.20
2018,09,07,16,13,16.20
2018,09,07,16,14,16.20
2018,09,07,16,15,16.10
2018,09,07,16,16,16.10
2018,09,07,16,17,16.10
2018,09,07,16,18,16.10
2018,09,07,16,19,16.10
2018,09,07,16,20,16.10
2018,09,07,16,21,16.10
2018,09,07,16,22,16.00
2018,09,07,16,23,16.00
2018,09,07,16,24,15.90
2018,09,07,16,25,15.80
2018,09,07,16,26,15.80
2018,09,07,16,27,15.80
2018,09,07,16,28,15.70
2018,09,07,16,29,15.70
2018,09,07,16,30,15.60
2018,09,07,16,31,15.50
2018,09,07,16,32,15.50
2018,09,07,16,33,15.40
2018,09,07,16,34,15.40
2018,09,07,16,35,15.30
2018,09,07,16,36,15.30
2018,09,07,16,37,15.30
2018,09,07,16,38,15.20
2018,09,07,16,39,15.20
2018,09,07,16,40,15.20
2018,09,07,16,41,15.20
2018,09,07,16,42,15.20
2018,09,07,16,43,15.20
2018,09,07,16,44,15.20
2018,09,07,16,45,15.20
2018,09,07,16,46,15.10
2018,09,07,16,47,15.10
2018,09,07,16,48,15.10
2018,09,07,16,49,15.10
2018,09,07,16,50,15.10
2018,09,07,16,51,15.10
2018,09,07,16,52,15.10
2018,09,07,16,53,15.10
2018,09,07,16,54,15.10
2018,09,07,16,55,15.10
2018,09,07,16,56,15.00
2018,09,07,16,57,15.00
2018,09,07,16,58,15.00
2018,09,07,16,59,15.00
2018,09,07,17,00,15.00
2018,09,07,17,01,14.90
2018,09,07,17,02,14.90
2018,09,07,17,03,14.90
2018,09,07,17,04,14.90
2018,09,07,17,05,14.90
2018,09,07,17,06,14.90
2018,09,07,17,07,14.90
2018,09,07,17,08,14.90
2018,09,07,17,09,14.80
2018,09,07,17,10,14.90
2018,09,07,17,11,14.80
2018,09,07,17,12,14.80
2018,09,07,17,13,14.80
2018,09,07,17,14,14.80
2018,09,07,17,15,14.90
2018,09,07,17,16,14.90
2018,09,07,17,17,14.90
2018,09,07,17,18,14.90
2018,09,07,17,19,14.90